This is the latest recevied weather packets stored in our database for station/object K4WCH. If no packets are shown the sender has not sent any weather packets the latest 10 day(s).
| Time | Temp. | Humidity | Pressure | Rain* | Wind** | Luminosity | Snow |
|---|---|---|---|---|---|---|---|
| 1788003890 | 23.33° C | 99% | 1018.5 hPa | 0 mm | - | 34 W/m² | - |
| 1788003585 | 22.78° C | 99% | 1018.3 hPa | 0 mm | - | 32 W/m² | - |
| 1788003279 | 22.78° C | 99% | 1018.6 hPa | 0 mm | - | 28 W/m² | - |
| 1788002974 | 22.78° C | 99% | 1018.6 hPa | 0 mm | - | 23 W/m² | - |
| 1788002674 | 22.78° C | 99% | 1018.4 hPa | 0 mm | - | 18 W/m² | - |
| 1788002370 | 22.78° C | 99% | 1018.4 hPa | 0 mm | - | 15 W/m² | - |
| 1788002065 | 22.78° C | 99% | 1018.3 hPa | 0 mm | - | 11 W/m² | - |
| 1788001764 | 22.78° C | 99% | 1018.3 hPa | 0 mm | - | 7 W/m² | - |
| 1788001459 | 22.78° C | 99% | 1018.3 hPa | 0 mm | - | 5 W/m² | - |
| 1788001154 | 22.78° C | 99% | 1018.1 hPa | 0 mm | - | 3 W/m² | - |
| 1788000850 | 22.78° C | 99% | 1018.1 hPa | 0 mm | - | 1 W/m² | - |
| 1788000545 | 22.78° C | 99% | 1017.9 hPa | 0 mm | - | 0 W/m² | - |
| 1788000245 | 22.78° C | 99% | 1017.8 hPa | 0 mm | - | 0 W/m² | - |
| 1787999940 | 22.78° C | 99% | 1018 hPa | 0 mm | - | 0 W/m² | - |
| 1787999637 | 22.78° C | 99% | 1017.9 hPa | 0 mm | - | 0 W/m² | - |
| 1787999334 | 22.78° C | 99% | 1017.9 hPa | 0 mm | - | 0 W/m² | - |
| 1787999033 | 22.78° C | 99% | 1017.9 hPa | 0 mm | - | 0 W/m² | - |
| 1787998728 | 22.78° C | 99% | 1017.9 hPa | 0 mm | - | 0 W/m² | - |
| 1787998426 | 22.78° C | 98% | 1017.9 hPa | 0 mm | - | 0 W/m² | - |
| 1787998121 | 22.78° C | 98% | 1017.9 hPa | 0 mm | - | 0 W/m² | - |
| 1787997821 | 22.78° C | 98% | 1017.8 hPa | 0 mm | - | 0 W/m² | - |
| 1787997519 | 22.78° C | 98% | 1017.7 hPa | 0 mm | - | 0 W/m² | - |
| 1787997219 | 22.78° C | 98% | 1017.6 hPa | 0 mm | - | 0 W/m² | - |
| 1787996918 | 22.78° C | 98% | 1017.6 hPa | 0 mm | - | 0 W/m² | - |
| 1787996614 | 22.78° C | 98% | 1017.7 hPa | 0 mm | - | 0 W/m² | - |
* Rain latest hour (hover to see other rain measurements)
** Current wind speed in m/s (hover to see current wind gust speed)